| time (UTC) | temp F | wind direction | speed MPH | gust MPH | rain 1hr in | rain 24hr in | rain mn in | humidity % | barometer mb |
| 20260504035049 | 56 | 0 | 0.0 | 2.0 | 0.00 | 0.07 | 0.00 | 96 | 1015.1 |
| 20260504034556 | 56 | 58 | 0.0 | 2.0 | 0.00 | 0.07 | 0.00 | 96 | 1015.2 |
| 20260504034052 | 56 | 0 | 0.0 | 2.0 | 0.00 | 0.07 | 0.00 | 96 | 1015.3 |
| 20260504033549 | 56 | 0 | 0.0 | 4.0 | 0.00 | 0.07 | 0.00 | 96 | 1015.4 |
| 20260504033049 | 56 | 26 | 2.0 | 4.0 | 0.00 | 0.07 | 0.00 | 95 | 1015.3 |
| 20260504032549 | 56 | 34 | 2.0 | 4.0 | 0.00 | 0.07 | 0.00 | 95 | 1015.4 |
| 20260504032049 | 56 | 344 | 2.0 | 4.0 | 0.00 | 0.07 | 0.00 | 95 | 1015.4 |
| 20260504031552 | 56 | 14 | 1.0 | 4.0 | 0.00 | 0.07 | 0.00 | 95 | 1015.4 |
| 20260504031048 | 56 | 0 | 0.0 | 2.0 | 0.00 | 0.07 | 0.00 | 95 | 1015.7 |
| 20260504030552 | 57 | 0 | 0.0 | 2.0 | 0.00 | 0.07 | 0.00 | 95 | 1015.6 |
| 20260504030051 | 57 | 0 | 0.0 | 4.0 | 0.00 | 0.07 | 0.00 | 95 | 1015.5 |
| 20260504025547 | 57 | 325 | 1.0 | 4.0 | 0.00 | 0.07 | 0.00 | 95 | 1015.7 |
| 20260504025048 | 57 | 289 | 2.0 | 3.0 | 0.00 | 0.07 | 0.00 | 95 | 1015.7 |
| 20260504024552 | 57 | 0 | 0.0 | 3.0 | 0.00 | 0.07 | 0.00 | 95 | 1015.8 |
| 20260504024050 | 57 | 280 | 1.0 | 3.0 | 0.00 | 0.07 | 0.00 | 95 | 1015.7 |
| 20260504023548 | 57 | 199 | 1.0 | 3.0 | 0.00 | 0.07 | 0.00 | 95 | 1015.7 |
| 20260504023049 | 57 | 214 | 1.0 | 3.0 | 0.00 | 0.07 | 0.00 | 95 | 1015.8 |
| 20260504022550 | 57 | 0 | 0.0 | 3.0 | 0.00 | 0.07 | 0.00 | 95 | 1015.7 |
| 20260504022049 | 57 | 0 | 0.0 | 3.0 | 0.00 | 0.07 | 0.00 | 95 | 1015.9 |
| 20260504021554 | 57 | 80 | 1.0 | 3.0 | 0.00 | 0.07 | 0.00 | 95 | 1015.8 |
| 20260504021052 | 57 | 98 | 1.0 | 2.0 | 0.00 | 0.07 | 0.00 | 95 | 1015.8 |
| 20260504020552 | 57 | 98 | 0.0 | 1.0 | 0.00 | 0.07 | 0.00 | 95 | 1015.9 |
| 20260504020058 | 57 | 0 | 0.0 | 1.0 | 0.00 | 0.07 | 0.00 | 95 | 1015.8 |
| 20260504015549 | 57 | 0 | 0.0 | 1.0 | 0.00 | 0.07 | 0.00 | 95 | 1016.0 |
| 20260504015048 | 57 | 0 | 0.0 | 1.0 | 0.00 | 0.07 | 0.00 | 95 | 1015.9 |
| 20260504014559 | 57 | 0 | 0.0 | 3.0 | 0.00 | 0.07 | 0.00 | 95 | 1015.9 |
| 20260504014049 | 57 | 0 | 0.0 | 3.0 | 0.00 | 0.07 | 0.00 | 95 | 1015.7 |
| 20260504013548 | 57 | 67 | 1.0 | 4.0 | 0.00 | 0.07 | 0.00 | 95 | 1015.8 |
| 20260504013108 | 57 | 83 | 2.0 | 4.0 | 0.00 | 0.07 | 0.00 | 95 | 1015.7 |
| 20260504012547 | 57 | 69 | 1.0 | 3.0 | 0.00 | 0.07 | 0.00 | 95 | 1015.9 |
| 20260504012049 | 57 | 104 | 0.0 | 2.0 | 0.00 | 0.07 | 0.00 | 95 | 1015.7 |
| 20260504011548 | 57 | 0 | 0.0 | 1.0 | 0.00 | 0.07 | 0.00 | 95 | 1015.8 |
| 20260504011048 | 57 | 0 | 0.0 | 1.0 | 0.00 | 0.07 | 0.00 | 95 | 1015.8 |
| 20260504010548 | 57 | 0 | 0.0 | 1.0 | 0.00 | 0.07 | 0.00 | 95 | 1015.8 |
| 20260504010050 | 57 | 0 | 0.0 | 1.0 | 0.00 | 0.07 | 0.00 | 95 | 1015.9 |
| 20260504005549 | 57 | 0 | 0.0 | 1.0 | 0.00 | 0.07 | 0.00 | 95 | 1015.8 |
| 20260504005053 | 57 | 0 | 0.0 | 1.0 | 0.00 | 0.07 | 0.00 | 95 | 1015.8 |
| 20260504004556 | 57 | 96 | 0.0 | 1.0 | 0.00 | 0.07 | 0.00 | 95 | 1015.9 |
| 20260504004049 | 57 | 96 | 0.0 | 2.0 | 0.00 | 0.07 | 0.00 | 95 | 1015.8 |
| 20260504003548 | 57 | 0 | 0.0 | 3.0 | 0.00 | 0.07 | 0.00 | 95 | 1015.9 |
| 20260504003058 | 57 | 45 | 1.0 | 3.0 | 0.00 | 0.07 | 0.00 | 95 | 1016.0 |
| 20260504002548 | 57 | 79 | 0.0 | 2.0 | 0.00 | 0.07 | 0.00 | 95 | 1016.0 |
| 20260504002051 | 57 | 0 | 0.0 | 1.0 | 0.00 | 0.07 | 0.00 | 95 | 1016.0 |
| 20260504001555 | 57 | 0 | 0.0 | 2.0 | 0.00 | 0.07 | 0.00 | 95 | 1016.2 |
| 20260504001050 | 57 | 0 | 0.0 | 2.0 | 0.00 | 0.07 | 0.00 | 95 | 1016.1 |
| 20260504000548 | 57 | 83 | 1.0 | 2.0 | 0.00 | 0.07 | 0.00 | 95 | 1015.9 |
| 20260504000107 | 57 | 84 | 0.0 | 1.0 | 0.00 | 0.07 | 0.00 | 95 | 1016.2 |
| 20260503235551 | 57 | 0 | 0.0 | 2.0 | 0.00 | 0.07 | 0.00 | 95 | 1016.1 |
| 20260503235049 | 58 | 0 | 0.0 | 2.0 | 0.00 | 0.07 | 0.00 | 95 | 1016.2 |
| 20260503234558 | 57 | 0 | 1.0 | 2.0 | 0.00 | 0.07 | 0.00 | 95 | 1016.2 |
| 20260503234048 | 57 | 0 | 0.0 | 1.0 | 0.00 | 0.07 | 0.00 | 95 | 1016.4 |
| 20260503233549 | 57 | 0 | 0.0 | 1.0 | 0.00 | 0.07 | 0.00 | 95 | 1016.3 |
| 20260503233052 | 57 | 0 | 0.0 | 0.0 | 0.00 | 0.07 | 0.00 | 95 | 1016.4 |
| 20260503232548 | 57 | 0 | 0.0 | 1.0 | 0.00 | 0.07 | 0.00 | 95 | 1016.4 |
| 20260503232048 | 57 | 0 | 0.0 | 1.0 | 0.00 | 0.07 | 0.00 | 95 | 1016.5 |
| 20260503231554 | 57 | 0 | 0.0 | 2.0 | 0.00 | 0.07 | 0.00 | 95 | 1016.6 |
| 20260503231049 | 57 | 84 | 0.0 | 2.0 | 0.00 | 0.07 | 0.00 | 95 | 1016.4 |
| 20260503230550 | 57 | 0 | 1.0 | 2.0 | 0.00 | 0.07 | 0.00 | 95 | 1016.5 |
| 20260503230052 | 57 | 84 | 0.0 | 2.0 | 0.00 | 0.07 | 0.00 | 95 | 1016.5 |
| 20260503225548 | 57 | 0 | 0.0 | 2.0 | 0.00 | 0.07 | 0.00 | 95 | 1016.5 |
| 20260503225048 | 57 | 84 | 0.0 | 2.0 | 0.00 | 0.07 | 0.00 | 95 | 1016.6 |
| 20260503224600 | 57 | 83 | 0.0 | 2.0 | 0.00 | 0.07 | 0.00 | 95 | 1016.6 |
| 20260503224048 | 57 | 0 | 0.0 | 3.0 | 0.00 | 0.07 | 0.00 | 95 | 1016.5 |
| 20260503223547 | 57 | 45 | 0.0 | 3.0 | 0.00 | 0.07 | 0.00 | 95 | 1016.6 |
| 20260503223054 | 57 | 43 | 2.0 | 3.0 | 0.00 | 0.07 | 0.00 | 95 | 1016.6 |
| 20260503222548 | 57 | 41 | 1.0 | 3.0 | 0.00 | 0.07 | 0.00 | 95 | 1016.5 |
| 20260503222051 | 57 | 36 | 2.0 | 3.0 | 0.00 | 0.07 | 0.00 | 95 | 1016.6 |
| 20260503221601 | 57 | 59 | 2.0 | 3.0 | 0.00 | 0.07 | 0.00 | 95 | 1016.7 |
| 20260503221053 | 57 | 90 | 0.0 | 2.0 | 0.00 | 0.07 | 0.00 | 95 | 1016.7 |
| 20260503220549 | 57 | 89 | 0.0 | 3.0 | 0.01 | 0.07 | 0.00 | 95 | 1016.6 |
| 20260503220052 | 57 | 0 | 0.0 | 3.0 | 0.01 | 0.07 | 0.00 | 95 | 1016.8 |
| 20260503215548 | 57 | 0 | 1.0 | 3.0 | 0.01 | 0.07 | 0.07 | 94 | 1016.8 |
| 20260503215048 | 57 | 256 | 0.0 | 3.0 | 0.01 | 0.07 | 0.07 | 94 | 1016.8 |
| 20260503214559 | 57 | 132 | 1.0 | 5.0 | 0.01 | 0.07 | 0.07 | 94 | 1016.7 |
| 20260503214051 | 57 | 9 | 1.0 | 5.0 | 0.01 | 0.07 | 0.07 | 94 | 1016.6 |
| 20260503213550 | 57 | 288 | 3.0 | 5.0 | 0.01 | 0.07 | 0.07 | 94 | 1016.7 |
| 20260503213102 | 57 | 331 | 0.0 | 3.0 | 0.02 | 0.07 | 0.07 | 94 | 1016.7 |
| 20260503212550 | 57 | 90 | 0.0 | 4.0 | 0.02 | 0.07 | 0.07 | 94 | 1016.7 |
| 20260503212050 | 57 | 60 | 1.0 | 5.0 | 0.02 | 0.07 | 0.07 | 94 | 1016.8 |
| 20260503211556 | 57 | 6 | 2.0 | 5.0 | 0.01 | 0.06 | 0.06 | 94 | 1016.7 |
| 20260503211053 | 57 | 64 | 1.0 | 3.0 | 0.02 | 0.06 | 0.06 | 94 | 1016.9 |
| 20260503210550 | 57 | 90 | 0.0 | 4.0 | 0.01 | 0.05 | 0.05 | 94 | 1016.7 |
| 20260503210050 | 57 | 0 | 1.0 | 4.0 | 0.01 | 0.05 | 0.05 | 94 | 1016.6 |
| 20260503205550 | 57 | 336 | 0.0 | 4.0 | 0.02 | 0.05 | 0.05 | 94 | 1016.7 |
| 20260503205051 | 57 | 92 | 1.0 | 4.0 | 0.02 | 0.05 | 0.05 | 94 | 1016.6 |
| 20260503204614 | 57 | 36 | 2.0 | 4.0 | 0.02 | 0.05 | 0.05 | 94 | 1016.5 |
| 20260503204050 | 57 | 31 | 2.0 | 4.0 | 0.03 | 0.05 | 0.05 | 94 | 1016.6 |
| 20260503203549 | 57 | 19 | 1.0 | 4.0 | 0.03 | 0.05 | 0.05 | 94 | 1016.5 |
| 20260503203054 | 58 | 17 | 1.0 | 2.0 | 0.02 | 0.04 | 0.04 | 94 | 1016.5 |
| 20260503202553 | 58 | 301 | 0.0 | 5.0 | 0.02 | 0.04 | 0.04 | 94 | 1016.6 |
| 20260503202050 | 57 | 301 | 3.0 | 6.0 | 0.03 | 0.04 | 0.04 | 94 | 1016.5 |
| 20260503201552 | 57 | 328 | 2.0 | 6.0 | 0.03 | 0.04 | 0.04 | 94 | 1016.4 |
| 20260503201049 | 57 | 286 | 2.0 | 4.0 | 0.02 | 0.03 | 0.03 | 93 | 1016.2 |
| 20260503200548 | 57 | 306 | 1.0 | 5.0 | 0.02 | 0.03 | 0.03 | 93 | 1016.3 |
| 20260503200053 | 57 | 311 | 2.0 | 5.0 | 0.02 | 0.03 | 0.03 | 93 | 1016.3 |
| 20260503195548 | 57 | 14 | 1.0 | 5.0 | 0.01 | 0.03 | 0.03 | 93 | 1016.0 |
| 20260503195048 | 57 | 296 | 1.0 | 6.0 | 0.01 | 0.03 | 0.03 | 93 | 1015.9 |
| 20260503194555 | 57 | 312 | 2.0 | 6.0 | 0.00 | 0.02 | 0.02 | 93 | 1015.8 |
| 20260503194048 | 57 | 330 | 2.0 | 7.0 | 0.00 | 0.02 | 0.02 | 92 | 1015.8 |
| 20260503193552 | 57 | 0 | 1.0 | 9.0 | 0.00 | 0.02 | 0.02 | 92 | 1015.8 |
| 20260503193059 | 58 | 297 | 3.0 | 9.0 | 0.00 | 0.02 | 0.02 | 92 | 1015.7 |
| 20260503192550 | 58 | 301 | 3.0 | 10.0 | 0.00 | 0.02 | 0.02 | 92 | 1015.7 |
| 20260503192050 | 58 | 312 | 5.0 | 10.0 | 0.00 | 0.01 | 0.01 | 91 | 1015.4 |
| 20260503191611 | 58 | 287 | 4.0 | 12.0 | 0.00 | 0.01 | 0.01 | 91 | 1015.5 |
| 20260503191048 | 59 | 57 | 2.0 | 12.0 | 0.00 | 0.01 | 0.01 | 91 | 1015.4 |
| 20260503190548 | 59 | 311 | 4.0 | 8.0 | 0.00 | 0.01 | 0.01 | 90 | 1015.5 |
| 20260503190055 | 59 | 292 | 2.0 | 7.0 | 0.00 | 0.01 | 0.01 | 90 | 1015.4 |
| 20260503185549 | 60 | 261 | 1.0 | 7.0 | 0.00 | 0.01 | 0.01 | 90 | 1015.2 |
| 20260503185048 | 60 | 68 | 3.0 | 6.0 | 0.00 | 0.01 | 0.01 | 90 | 1015.2 |
| 20260503184550 | 60 | 0 | 1.0 | 6.0 | 0.00 | 0.01 | 0.01 | 91 | 1015.1 |
| 20260503184051 | 60 | 22 | 3.0 | 6.0 | 0.00 | 0.01 | 0.01 | 90 | 1015.1 |
| 20260503183549 | 60 | 103 | 1.0 | 5.0 | 0.00 | 0.01 | 0.01 | 90 | 1015.1 |
| 20260503183052 | 60 | 109 | 1.0 | 7.0 | 0.00 | 0.01 | 0.01 | 90 | 1015.0 |
| 20260503182551 | 60 | 264 | 2.0 | 10.0 | 0.00 | 0.01 | 0.01 | 90 | 1015.0 |
| 20260503182050 | 60 | 7 | 2.0 | 10.0 | 0.00 | 0.01 | 0.01 | 89 | 1014.9 |
| 20260503181556 | 60 | 332 | 4.0 | 8.0 | 0.00 | 0.01 | 0.01 | 89 | 1014.9 |
| 20260503181048 | 60 | 24 | 3.0 | 9.0 | 0.00 | 0.01 | 0.01 | 88 | 1014.8 |
| 20260503180551 | 60 | 301 | 4.0 | 9.0 | 0.00 | 0.01 | 0.01 | 88 | 1014.8 |
| 20260503180249 | 60 | 328 | 5.0 | 8.0 | 0.00 | 0.01 | 0.01 | 88 | 1014.8 |
| 20260503174556 | 60 | 309 | 5.0 | 10.0 | 0.00 | 0.01 | 0.01 | 89 | 1014.9 |
| 20260503174048 | 60 | 311 | 5.0 | 10.0 | 0.00 | 0.01 | 0.01 | 89 | 1015.0 |
| 20260503173548 | 60 | 299 | 5.0 | 10.0 | 0.00 | 0.01 | 0.01 | 89 | 1014.9 |
| 20260503173100 | 60 | 296 | 3.0 | 8.0 | 0.00 | 0.01 | 0.01 | 89 | 1014.8 |
| 20260503172831 | 60 | 334 | 1.0 | 13.0 | 0.00 | 0.01 | 0.01 | 90 | 1015.0 |
| 20260503171048 | 60 | 303 | 5.0 | 11.0 | 0.00 | 0.01 | 0.01 | 88 | 1014.7 |
| 20260503170552 | 60 | 12 | 6.0 | 10.0 | 0.00 | 0.01 | 0.01 | 88 | 1015.1 |
| 20260503170105 | 61 | 339 | 4.0 | 9.0 | 0.00 | 0.01 | 0.01 | 88 | 1015.1 |
| 20260503160109 | 64 | 7 | 6.0 | 10.0 | 0.00 | 0.00 | 0.00 | 81 | 1014.6 |
| 20260503150549 | 68 | 61 | 4.0 | 7.0 | 0.00 | 0.00 | 0.00 | 69 | 1015.1 |
| 20260503131050 | 67 | 126 | 1.0 | 6.0 | 0.00 | 0.00 | 0.00 | 73 | 1016.4 |
| 20260503130551 | 66 | 148 | 2.0 | 6.0 | 0.00 | 0.00 | 0.00 | 73 | 1016.4 |
| 20260503110550 | 62 | 69 | 5.0 | 11.0 | 0.00 | 0.00 | 0.00 | 82 | 1017.4 |
| 20260503081048 | 58 | 124 | 1.0 | 6.0 | 0.00 | 0.00 | 0.00 | 93 | 1017.9 |
| 20260503080551 | 57 | 51 | 1.0 | 6.0 | 0.00 | 0.00 | 0.00 | 94 | 1017.9 |
| 20260503072548 | 56 | 358 | 3.0 | 5.0 | 0.00 | 0.00 | 0.00 | 94 | 1017.9 |
| 20260503072048 | 56 | 64 | 0.0 | 3.0 | 0.00 | 0.00 | 0.00 | 94 | 1018.0 |
| 20260503071612 | 56 | 119 | 1.0 | 4.0 | 0.00 | 0.00 | 0.00 | 94 | 1018.1 |
| 20260503071048 | 56 | 17 | 2.0 | 4.0 | 0.00 | 0.00 | 0.00 | 93 | 1018.0 |
| 20260503070548 | 56 | 10 | 1.0 | 4.0 | 0.00 | 0.00 | 0.00 | 93 | 1018.0 |
| 20260503055048 | 56 | 0 | 0.0 | 1.0 | 0.00 | 0.00 | 0.00 | 93 | 1017.6 |
| 20260503054613 | 56 | 0 | 0.0 | 1.0 | 0.00 | 0.00 | 0.00 | 93 | 1017.7 |
| 20260503054052 | 56 | 0 | 0.0 | 1.0 | 0.00 | 0.00 | 0.00 | 93 | 1017.6 |
| 20260503053549 | 56 | 0 | 0.0 | 1.0 | 0.00 | 0.00 | 0.00 | 93 | 1017.5 |
| 20260503053102 | 56 | 0 | 0.0 | 2.0 | 0.00 | 0.00 | 0.00 | 93 | 1017.4 |
| 20260503052548 | 56 | 67 | 0.0 | 2.0 | 0.00 | 0.00 | 0.00 | 93 | 1017.5 |
| 20260503052051 | 56 | 67 | 0.0 | 2.0 | 0.00 | 0.00 | 0.00 | 93 | 1017.5 |
| 20260503051555 | 56 | 60 | 0.0 | 6.0 | 0.00 | 0.00 | 0.00 | 93 | 1017.6 |
| 20260503051048 | 56 | 24 | 0.0 | 6.0 | 0.00 | 0.00 | 0.00 | 93 | 1017.4 |
| 20260503050548 | 55 | 23 | 1.0 | 6.0 | 0.00 | 0.00 | 0.00 | 93 | 1017.3 |
| 20260503050058 | 55 | 280 | 1.0 | 5.0 | 0.00 | 0.00 | 0.00 | 93 | 1017.0 |
| 20260503045548 | 56 | 347 | 2.0 | 7.0 | 0.00 | 0.00 | 0.00 | 93 | 1017.0 |
| 20260503045047 | 55 | 301 | 3.0 | 7.0 | 0.00 | 0.00 | 0.00 | 93 | 1017.1 |
| 20260503044554 | 55 | 180 | 1.0 | 5.0 | 0.00 | 0.00 | 0.00 | 93 | 1017.1 |
| 20260503044048 | 55 | 301 | 1.0 | 4.0 | 0.00 | 0.00 | 0.00 | 93 | 1017.2 |
| 20260503043548 | 55 | 317 | 0.0 | 4.0 | 0.00 | 0.00 | 0.00 | 93 | 1017.4 |
| 20260503043100 | 55 | 45 | 1.0 | 4.0 | 0.00 | 0.00 | 0.00 | 93 | 1017.3 |
| 20260503042550 | 55 | 305 | 1.0 | 4.0 | 0.00 | 0.00 | 0.00 | 93 | 1017.3 |
| 20260503042049 | 55 | 190 | 1.0 | 5.0 | 0.00 | 0.00 | 0.00 | 93 | 1017.4 |
| 20260503041559 | 55 | 342 | 2.0 | 5.0 | 0.00 | 0.00 | 0.00 | 93 | 1017.1 |
| 20260503041053 | 55 | 301 | 1.0 | 3.0 | 0.00 | 0.00 | 0.00 | 93 | 1017.4 |
| 20260503040548 | 55 | 80 | 0.0 | 4.0 | 0.00 | 0.00 | 0.00 | 93 | 1017.4 |
| 20260503040107 | 55 | 0 | 1.0 | 4.0 | 0.00 | 0.00 | 0.00 | 93 | 1017.5 |
| 20260503035548 | 55 | 306 | 2.0 | 4.0 | 0.00 | 0.00 | 0.00 | 93 | 1017.5 |